[[{"header":{"parameterUnit":"m.s-1","parameterCategory":1,"la1":30.2991,"la2":30.254,"lo1":-89.0895,"lo2":-89.0444,"dy":0.0017,"dx":0.0017,"nx":28,"ny":28,"refTime":"2025-08-02T09:00:00:Z","depth":0,"parameterNumber":2,"parameterNumberName":"U-component_of_WINDS"},"data":[0,0,0,0,0,0,0,0,0,0,0,0,0,0,0,0,0,0,0,0,0,0,0,0,0,0,0,0,0,0,0,0,0,0,0,0,0,0,0,0,0,0,0,0,0,0,0,0,0,0,0,0,0,0,0,0,0,0,1.8788,1.8789,0,1.8901,1.8903,1.8904,1.8918,1.8917,1.8915,1.8914,1.9031,1.9035,1.9039,0,0,0,0,0,0,0,0,0,0,0,0,0,1.8584,1.8587,1.8788,1.8789,1.879,1.8901,1.8903,1.8904,1.8918,1.8917,1.8915,1.8914,1.9029,1.9034,1.9039,0,0,0,0,0,0,0,0,0,0,0,0,0,1.8682,1.8589,1.8787,1.8811,1.8814,1.8901,1.8903,1.8905,1.8918,1.8917,1.8915,1.8913,1.9028,1.9034,1.904,1.9112,0,0,1.9059,1.9062,0,0,0,0,0,0,0,0,1.8677,1.869,1.8806,1.8809,1.8813,1.8894,1.8874,1.8974,1.8919,1.8879,1.8914,1.8912,1.8986,1.8996,1.9021,1.9117,1.9122,1.9059,1.9063,1.9066,1.9068,0,0,0,0,0,0,0,1.867,1.8685,1.8833,1.8807,1.8812,1.8816,1.8828,1.8893,1.894,1.8882,1.8883,1.8896,1.8988,1.9015,1.9024,1.9124,1.9059,1.9065,1.9069,1.9071,1.9288,1.929,0,0,0,0,0,0,1.8659,1.8679,1.8829,1.8836,1.8739,1.8821,1.8835,1.8869,1.894,1.8949,1.8898,1.8897,1.9005,1.9017,1.9028,1.9119,1.9066,1.9072,1.9075,1.9286,1.9289,1.9291,0,0,0,0,0,0,1.8654,1.8672,1.8824,1.8758,1.8778,1.8826,1.8865,1.8873,1.8899,1.8952,1.896,1.8916,1.9004,1.9019,1.9092,1.9123,1.9074,1.908,1.9284,1.9287,1.929,1.93,0,0,0,0,0,0,1.8648,1.867,1.8697,1.8759,1.8781,1.8885,1.8867,1.8876,1.891,1.891,1.8972,1.898,1.9004,1.9082,1.9098,1.9131,1.9085,1.9281,1.9285,1.9289,1.9297,1.9303,1.9308,0,0,0,0,0,1.8641,1.8695,1.8699,1.8717,1.8816,1.8887,1.89,1.8927,1.8912,1.8941,1.8975,1.8978,1.9117,1.9089,1.9107,1.9142,1.9279,1.9284,1.9289,1.9294,1.9302,1.9308,0,0,0,0,0,0,1.8635,1.8703,1.8708,1.8783,1.8829,1.8889,1.8925,1.8933,1.8984,1.8982,1.9012,1.9026,1.9098,1.9127,1.9095,1.9217,1.9197,1.9205,1.9195,1.9203,1.9208,1.92,1.909,0,0,0,0,0,1.8642,1.8694,1.8751,1.8812,1.8835,1.8876,1.8908,1.8925,1.8974,1.8994,1.9033,1.9081,1.9136,1.9171,1.9224,1.9301,1.9316,1.9335,1.934,1.9344,1.9351,1.9398,1.9407,1.9306,1.9306,1.9306,0,0,1.8658,1.8702,1.8732,1.8812,1.885,1.8904,1.8892,1.8949,1.899,1.9002,1.9073,1.9104,1.916,1.9236,1.9271,1.9263,1.9383,1.935,1.9353,1.9358,1.9404,1.9413,1.9422,1.9309,1.9309,1.9308,0,0,1.8714,1.8752,1.8808,1.8847,1.8905,1.8933,1.8946,1.9006,1.9027,1.91,1.9111,1.916,1.9253,1.9293,1.9325,1.9401,1.9407,1.9417,1.9446,1.9491,1.9499,1.9506,1.9535,1.9545,1.9424,1.9424,1.9424,0,1.8727,1.8808,1.8836,1.8894,1.8929,1.8944,1.9002,1.9038,1.911,1.9135,1.9124,1.9244,1.9282,1.9369,1.9388,1.9413,1.9431,1.941,1.9495,1.9503,1.951,1.9538,1.9549,1.9425,1.9425,1.9425,1.9425,0,1.8821,1.8878,1.8916,1.8987,1.9027,1.9084,1.9122,1.9159,1.9174,1.9203,1.9278,1.9325,1.9389,1.9411,1.9424,1.9501,1.9494,1.9489,1.9469,1.9521,1.9548,1.9558,1.9426,1.9426,1.9426,1.9425,0,0,1.8875,1.8963,1.8977,1.9011,1.9077,1.9122,1.9181,1.9244,1.9277,1.9327,1.9378,1.9458,1.9455,1.9492,1.9511,1.955,1.961,1.9541,1.9542,1.9553,1.97,1.9704,1.9716,1.9614,1.9616,1.9618,1.9696,0,1.8941,1.9047,1.9075,1.9165,1.9219,1.9236,1.9288,1.9335,1.9364,1.9415,1.9448,1.9505,1.9495,1.9518,1.9558,1.9594,1.964,1.9589,1.9664,1.9666,1.965,1.973,1.9734,1.9805,1.9707,1.9708,1.971,0,1.9031,1.9084,1.918,1.9243,1.9266,1.9312,1.9375,1.9423,1.9477,1.9496,1.9539,1.9555,1.9619,1.9596,1.9686,1.9651,1.9683,1.9706,1.971,1.9718,1.9691,1.9742,1.9828,1.984,1.9726,1.9725,1.9724,0,1.9063,1.9159,1.923,1.9258,1.9332,1.9364,1.9397,1.945,1.9487,1.9542,1.9567,1.9628,1.9661,1.9709,1.9742,1.9721,1.983,1.9809,1.9849,1.9848,1.9871,1.9869,1.9965,1.989,1.989,1.989,1.9889,0,1.9134,1.9192,1.9246,1.9289,1.9356,1.9389,1.9454,1.9487,1.9535,1.9586,1.9604,1.9652,1.9691,1.9745,1.9771,1.9843,1.9858,1.9876,1.9882,1.9875,1.9873,1.9897,1.9894,1.9892,1.9892,1.9891,1.9891,0,1.9181,1.9219,1.9297,1.9362,1.938,1.9426,1.9482,1.9526,1.9557,1.9622,1.9639,1.9688,1.9753,1.979,1.9871,1.9889,1.9969,1.9972,1.9951,1.9954,1.9993,1.9989,2.0108,2.0127,2.0038,2.0039,2.0039,0,1.9224,1.927,1.934,1.9376,1.9409,1.9466,1.9506,1.9541,1.9581,1.9648,1.9684,1.975,1.9805,1.9907,1.9951,2.0014,2.0019,2.0057,2.0029,2.0021,2.0022,2.002,2.0026,2.0062,2.0063,2.0063,2.0064,0,1.9297,1.9314,1.937,1.9433,1.9479,1.9531,1.9581,1.961,1.9654,1.9698,1.9765,1.9807,1.9891,1.9957,2.0024,2.0059,2.007,2.0073,2.0086,2.0079,2.0065,2.0075,1.9965,2.007,2.0069,2.0069,2.0068,2.0068,1.9344,1.9387,1.9444,1.9507,1.9549,1.9597,1.9642,1.968,1.9736,1.9808,1.9825,1.9896,1.9953,2.0044,2.008,2.0137,2.0131,2.0149,2.0154,2.0158,2.016,2.0056,2.0149,2.0149,2.0149,2.0149,2.0149,0,1.942,1.9458,1.9515,1.9587,1.9637,1.9643,1.9701,1.9742,1.9804,1.9856,1.991,1.9988,2.0053,2.0103,2.017,2.0206,2.0213,2.0222,2.022,2.0229,2.0161,2.0144,2.0216,2.0216,2.0216,2.0216,2.0216,2.0216,1.9465,1.9539,1.9563,1.9659,1.9697,1.9767,1.9799,1.9845,1.9887,1.9973,2.0028,2.006,2.0112,2.0183,2.0243,2.0257,2.0281,2.029,2.0304,2.024,2.0233,2.0226,2.021,2.0295,2.0295,2.0368,2.0368,2.0369]},{"header":{"parameterUnit":"m.s-1","parameterCategory":1,"la1":30.2991,"la2":30.254,"lo1":-89.0895,"lo2":-89.0444,"dy":0.0017,"dx":0.0017,"nx":28,"ny":28,"refTime":"2025-08-02T09:00:00:Z","depth":0,"parameterNumber":3,"parameterNumberName":"V-component_of_WINDS"},"data":[0,0,0,0,0,0,0,0,0,0,0,0,0,0,0,0,0,0,0,0,0,0,0,0,0,0,0,0,0,0,0,0,0,0,0,0,0,0,0,0,0,0,0,0,0,0,0,0,0,0,0,0,0,0,0,0,0,0,-2.2877,-2.2876,0,-2.275,-2.2748,-2.2747,-2.2681,-2.2681,-2.2681,-2.2681,-2.2539,-2.2536,-2.2532,0,0,0,0,0,0,0,0,0,0,0,0,0,-2.3054,-2.3051,-2.2878,-2.2876,-2.2874,-2.275,-2.2748,-2.2746,-2.2681,-2.2681,-2.2681,-2.2681,-2.254,-2.2536,-2.2531,0,0,0,0,0,0,0,0,0,0,0,0,0,-2.2957,-2.305,-2.2878,-2.2827,-2.2821,-2.275,-2.2748,-2.2746,-2.2681,-2.2681,-2.2681,-2.2681,-2.2542,-2.2536,-2.2531,-2.2497,0,0,-2.2514,-2.2511,0,0,0,0,0,0,0,0,-2.2962,-2.295,-2.2836,-2.283,-2.2824,-2.2732,-2.2758,-2.2662,-2.2681,-2.2734,-2.2681,-2.2681,-2.2602,-2.2592,-2.2568,-2.2491,-2.2485,-2.2513,-2.251,-2.2507,-2.2506,0,0,0,0,0,0,0,-2.2969,-2.2955,-2.2827,-2.2834,-2.2827,-2.2807,-2.2793,-2.274,-2.267,-2.2729,-2.2724,-2.2711,-2.2599,-2.2573,-2.2564,-2.2482,-2.2513,-2.2508,-2.2505,-2.2503,-2.237,-2.2369,0,0,0,0,0,0,-2.2986,-2.2961,-2.2831,-2.2823,-2.2895,-2.2804,-2.2789,-2.2761,-2.267,-2.2657,-2.2711,-2.2708,-2.2583,-2.257,-2.2559,-2.2513,-2.2507,-2.2502,-2.2499,-2.237,-2.2369,-2.2369,0,0,0,0,0,0,-2.299,-2.2975,-2.2836,-2.2891,-2.2872,-2.2801,-2.2771,-2.2759,-2.2733,-2.2657,-2.2643,-2.2698,-2.2582,-2.2567,-2.2513,-2.2507,-2.25,-2.2495,-2.237,-2.237,-2.2369,-2.2421,0,0,0,0,0,0,-2.2995,-2.2976,-2.2966,-2.2891,-2.2869,-2.2796,-2.277,-2.2756,-2.2725,-2.272,-2.2641,-2.2628,-2.2581,-2.2522,-2.2508,-2.2499,-2.249,-2.237,-2.237,-2.2369,-2.242,-2.2423,-2.2425,0,0,0,0,0,-2.3002,-2.2983,-2.2965,-2.295,-2.2855,-2.2796,-2.2783,-2.2733,-2.2725,-2.2711,-2.2662,-2.263,-2.251,-2.2517,-2.2501,-2.249,-2.237,-2.237,-2.237,-2.2418,-2.2422,-2.2425,0,0,0,0,0,0,-2.3054,-2.2972,-2.2952,-2.2909,-2.2861,-2.2785,-2.2767,-2.2739,-2.2689,-2.2686,-2.2623,-2.2605,-2.2558,-2.2518,-2.2528,-2.2452,-2.2437,-2.2433,-2.248,-2.2482,-2.2485,-2.2495,-2.2485,0,0,0,0,0,-2.3062,-2.3025,-2.2954,-2.2923,-2.29,-2.2838,-2.2811,-2.2777,-2.2722,-2.27,-2.2647,-2.2592,-2.2542,-2.251,-2.2459,-2.2414,-2.2394,-2.2398,-2.2401,-2.2403,-2.24,-2.2372,-2.2372,-2.2368,-2.2368,-2.2368,0,0,-2.3075,-2.3026,-2.3006,-2.2932,-2.2891,-2.285,-2.2821,-2.278,-2.2748,-2.2692,-2.264,-2.2599,-2.2534,-2.2484,-2.2459,-2.245,-2.2397,-2.2403,-2.2406,-2.2401,-2.2371,-2.2372,-2.2372,-2.2368,-2.2368,-2.2368,0,0,-2.3079,-2.304,-2.3009,-2.2969,-2.2908,-2.2867,-2.286,-2.2789,-2.2761,-2.2708,-2.2665,-2.2625,-2.254,-2.2495,-2.2461,-2.2449,-2.2417,-2.2434,-2.2448,-2.2421,-2.2421,-2.2421,-2.2415,-2.2414,-2.2431,-2.2432,-2.2432,0,-2.3103,-2.3045,-2.2996,-2.2958,-2.2926,-2.2878,-2.2845,-2.2807,-2.2731,-2.2708,-2.2699,-2.2592,-2.2544,-2.2483,-2.2481,-2.2455,-2.2442,-2.2442,-2.2426,-2.2425,-2.2424,-2.2418,-2.2416,-2.2434,-2.2434,-2.2433,-2.2433,0,-2.3076,-2.3036,-2.3018,-2.2951,-2.2916,-2.2881,-2.2824,-2.2794,-2.2763,-2.2722,-2.2668,-2.2609,-2.2546,-2.2529,-2.2497,-2.2463,-2.2459,-2.2439,-2.2422,-2.2428,-2.2421,-2.2418,-2.2437,-2.2437,-2.2436,-2.2435,0,0,-2.3109,-2.3017,-2.3011,-2.2979,-2.2908,-2.2874,-2.2835,-2.2778,-2.2753,-2.2701,-2.2665,-2.2595,-2.2577,-2.2538,-2.25,-2.2477,-2.2469,-2.2459,-2.2456,-2.2462,-2.2426,-2.2441,-2.2439,-2.2448,-2.2447,-2.2447,-2.2431,0,-2.3103,-2.3036,-2.2991,-2.294,-2.2901,-2.2854,-2.282,-2.2771,-2.2731,-2.269,-2.2644,-2.2595,-2.2575,-2.2551,-2.2526,-2.2476,-2.2461,-2.2476,-2.241,-2.2409,-2.2428,-2.2436,-2.2452,-2.244,-2.2428,-2.2428,-2.2427,0,-2.3086,-2.3041,-2.2987,-2.2921,-2.2902,-2.2873,-2.2816,-2.2778,-2.272,-2.2692,-2.2651,-2.2613,-2.2566,-2.2554,-2.2487,-2.2499,-2.2469,-2.244,-2.2438,-2.2429,-2.2418,-2.2426,-2.2435,-2.2433,-2.2423,-2.2423,-2.2423,0,-2.3115,-2.304,-2.2998,-2.2972,-2.2894,-2.2874,-2.2839,-2.2782,-2.275,-2.2698,-2.2676,-2.2619,-2.2587,-2.2542,-2.2488,-2.2485,-2.2426,-2.241,-2.2399,-2.2401,-2.2388,-2.2389,-2.2391,-2.2371,-2.2371,-2.2371,-2.2371,0,-2.3112,-2.308,-2.301,-2.2984,-2.2946,-2.2894,-2.2857,-2.2818,-2.2767,-2.273,-2.2685,-2.265,-2.2582,-2.2538,-2.2495,-2.2445,-2.2431,-2.2405,-2.2394,-2.2409,-2.2412,-2.2387,-2.2386,-2.237,-2.237,-2.237,-2.2371,0,-2.3137,-2.3089,-2.304,-2.2971,-2.2953,-2.2928,-2.2867,-2.2838,-2.2797,-2.275,-2.2736,-2.267,-2.2615,-2.2558,-2.2483,-2.2454,-2.2405,-2.239,-2.2427,-2.242,-2.2412,-2.2413,-2.2397,-2.2392,-2.2377,-2.2377,-2.2377,0,-2.3138,-2.3114,-2.3043,-2.3017,-2.2985,-2.2943,-2.2912,-2.2858,-2.2826,-2.2758,-2.2737,-2.268,-2.2632,-2.2547,-2.2489,-2.2431,-2.2413,-2.2412,-2.2404,-2.2419,-2.2412,-2.2414,-2.241,-2.2414,-2.2414,-2.2415,-2.2415,0,-2.3145,-2.3123,-2.3081,-2.303,-2.2994,-2.2951,-2.2905,-2.2885,-2.2822,-2.2787,-2.2734,-2.2697,-2.2622,-2.2565,-2.25,-2.246,-2.2426,-2.2418,-2.2412,-2.2427,-2.2449,-2.2436,-2.2433,-2.2418,-2.2418,-2.2418,-2.2418,-2.2418,-2.3157,-2.3133,-2.308,-2.3034,-2.2995,-2.2954,-2.2924,-2.288,-2.2836,-2.2774,-2.2743,-2.2689,-2.263,-2.254,-2.2501,-2.2455,-2.2445,-2.2437,-2.2434,-2.2433,-2.2436,-2.2458,-2.2443,-2.2443,-2.2443,-2.2442,-2.2442,0,-2.316,-2.3125,-2.3084,-2.3023,-2.2986,-2.2962,-2.291,-2.288,-2.2835,-2.2784,-2.2739,-2.2676,-2.2621,-2.256,-2.25,-2.2475,-2.2457,-2.2461,-2.2461,-2.2452,-2.2449,-2.246,-2.2476,-2.2476,-2.2476,-2.2476,-2.2476,-2.2476,-2.3158,-2.3116,-2.3088,-2.3024,-2.2987,-2.2938,-2.291,-2.287,-2.283,-2.2764,-2.2719,-2.2681,-2.2625,-2.2561,-2.2508,-2.2491,-2.2471,-2.2478,-2.2457,-2.2455,-2.2452,-2.245,-2.246,-2.2475,-2.2475,-2.2463,-2.2463,-2.2463]}]]